Date,TemperatureHighF,TemperatureAvgF,TemperatureLowF,DewpointHighF,DewpointAvgF,DewpointLowF,HumidityHigh,HumidityAvg,HumidityLow,PressureMaxIn,PressureMinIn,WindSpeedMaxMPH,WindSpeedAvgMPH,GustSpeedMaxMPH,PrecipitationSumIn
2013-1-1,42.4,39.4,35.6,31.2,29.9,26.9,77,69,63,30.04,29.93,15,3,15,0.00
2013-1-2,35.4,31.5,22.8,27.3,21.7,13.0,80,67,44,30.25,30.02,11,1,11,0.00
2013-1-3,39.6,30.7,14.7,23.6,19.2,11.8,88,64,45,30.27,30.15,28,3,28,0.00
2013-1-4,39.0,35.1,32.7,24.1,22.5,21.1,66,60,52,30.23,30.13,21,6,28,0.00
2013-1-5,43.9,35.8,30.7,27.9,23.6,21.1,84,62,43,30.40,30.17,18,2,18,0.00
2013-1-6,45.9,38.2,27.7,32.5,28.7,24.0,87,70,52,30.20,30.04,10,1,11,0.00
2013-1-7,41.4,35.9,23.2,32.5,26.3,19.9,88,69,55,30.46,30.18,15,2,15,0.00
2013-1-8,50.4,30.4,18.0,34.1,24.2,15.0,88,79,50,30.44,30.36,5,0,5,0.00
2013-1-9,52.3,37.7,23.5,44.3,31.2,20.2,88,78,56,30.43,30.25,14,2,16,0.00
2013-1-10,52.9,44.4,34.2,33.2,30.4,26.8,78,59,38,30.62,30.43,21,2,21,0.00
2013-1-11,47.1,41.6,38.7,40.8,34.5,29.7,87,76,58,30.48,30.11,7,1,7,0.12
2013-1-12,57.6,45.6,39.9,50.8,41.6,36.4,88,86,77,30.18,30.09,6,0,6,0.01
2013-1-13,57.4,49.1,42.4,52.3,45.2,38.8,88,86,83,30.10,29.94,6,1,6,0.00
2013-1-14,55.6,48.4,38.5,51.7,41.2,33.0,88,77,62,30.33,29.94,14,2,14,0.22
2013-1-15,40.1,37.6,33.8,35.2,33.5,30.3,88,85,77,30.37,30.18,7,1,7,0.46
2013-1-16,39.9,36.2,33.3,36.7,32.7,29.8,88,87,87,30.18,29.86,6,0,6,0.39
2013-1-17,41.5,38.5,33.3,36.5,31.4,26.5,88,76,56,30.16,30.01,14,2,14,0.01
2013-1-18,36.9,31.8,23.4,28.5,18.2,10.4,81,58,36,30.51,30.09,24,3,24,0.00
2013-1-19,58.1,41.3,23.2,29.8,25.1,18.5,87,56,29,30.37,29.91,11,2,11,0.00
2013-1-20,53.2,41.6,27.9,32.9,20.5,6.9,83,46,19,30.11,29.82,24,4,26,0.00
2013-1-21,42.6,31.4,24.5,20.7,16.8,8.9,74,55,32,30.11,29.83,23,3,23,0.00
2013-1-22,24.4,17.1,13.1,9.8,-0.4,-3.7,63,46,37,30.32,29.99,24,6,26,0.00
2013-1-23,24.3,18.2,11.5,14.3,2.7,-0.9,80,51,36,30.37,30.15,17,3,17,0.00
2013-1-24,25.7,19.4,10.8,15.0,8.1,-2.5,87,64,40,30.56,30.12,15,2,18,0.00
2013-1-25,21.6,16.4,8.5,17.0,10.3,0.4,87,77,58,30.55,30.08,6,1,7,0.00
2013-1-26,33.0,24.7,15.3,26.2,19.9,12.3,88,82,64,30.47,30.10,11,1,11,0.01
2013-1-27,35.6,26.7,14.9,22.7,18.2,11.3,86,71,53,30.61,30.47,6,1,9,0.01
2013-1-28,43.8,35.8,28.8,40.1,31.7,21.7,87,85,74,30.47,30.06,5,0,5,0.13
2013-1-29,69.9,54.4,41.3,57.6,48.2,37.7,88,80,62,30.12,29.92,7,1,7,0.00
2013-1-30,70.8,56.1,45.9,61.3,51.6,42.0,87,85,69,29.92,29.23,10,1,19,1.26
2013-1-31,55.4,37.3,28.7,51.6,25.9,12.8,87,64,48,29.89,29.16,38,8,38,0.15
2013-2-1,28.4,22.8,16.3,23.8,11.2,3.7,88,61,47,30.41,29.84,22,4,23,0.00
2013-2-2,28.7,19.2,7.9,20.4,12.1,4.5,87,74,57,30.41,30.04,8,1,8,0.00
2013-2-3,35.5,27.8,22.0,29.2,22.4,15.1,88,80,61,30.04,29.82,22,2,22,0.01
2013-2-4,37.2,29.7,23.8,27.8,18.9,12.7,87,65,46,30.10,29.89,22,3,22,0.00
2013-2-5,37.0,33.1,30.5,33.8,29.8,27.1,88,87,87,29.95,29.86,6,0,6,0.06
2013-2-6,39.5,34.4,24.0,32.6,26.4,20.8,88,73,64,30.36,29.94,13,2,13,0.00
2013-2-7,38.8,30.8,22.5,27.7,24.1,19.5,88,77,60,30.44,30.21,11,2,11,0.00
2013-2-8,40.7,35.9,32.7,36.1,30.4,23.1,87,81,66,30.21,29.81,26,3,29,0.02
2013-2-9,40.5,32.3,21.1,23.4,19.0,14.6,80,59,40,30.41,29.98,29,5,32,0.00
2013-2-10,44.5,31.6,14.2,24.4,18.6,11.3,88,62,36,30.48,30.19,9,1,11,0.00
2013-2-11,67.0,49.8,35.6,52.4,36.2,22.9,87,64,25,30.19,29.67,25,3,25,0.18
2013-2-12,56.0,46.7,31.3,32.0,27.0,22.6,76,47,29,29.98,29.84,22,5,22,0.00
2013-2-13,42.9,32.7,24.3,33.6,27.6,20.7,87,82,59,29.95,29.68,9,1,9,0.03
2013-2-14,50.2,37.1,27.0,33.5,29.1,23.7,88,74,47,30.01,29.81,10,1,11,0.08
2013-2-15,55.0,37.6,26.5,37.3,30.8,23.3,88,78,47,30.05,29.95,10,1,13,0.05
2013-2-16,37.7,33.4,27.4,30.6,23.5,14.1,88,68,48,30.01,29.89,10,2,11,0.00
2013-2-17,28.3,25.1,22.4,19.0,12.5,6.9,81,59,43,30.25,29.89,23,6,23,0.00
2013-2-18,43.4,29.5,12.7,19.1,12.2,7.1,80,51,27,30.41,30.11,11,2,11,0.00
2013-2-19,54.0,39.4,26.0,42.1,28.8,18.7,86,67,48,30.11,29.67,24,4,27,0.06
2013-2-20,35.9,29.5,24.0,21.5,14.1,9.3,58,52,43,30.20,29.86,26,8,26,0.00
2013-2-21,37.4,28.2,23.6,18.4,15.1,10.6,77,58,44,30.36,30.16,18,3,18,0.00
2013-2-22,31.7,28.7,23.8,28.0,23.4,17.4,86,80,68,30.40,30.19,9,1,9,0.00
2013-2-23,50.1,37.6,31.6,41.1,32.9,27.9,87,83,70,30.19,29.85,7,1,8,0.00
2013-2-24,47.9,37.7,30.2,34.5,27.4,19.1,87,68,45,30.15,29.83,18,3,18,0.00
2013-2-25,46.6,34.1,24.3,25.1,21.7,19.2,83,62,39,30.23,30.15,8,1,8,0.00
2013-2-26,40.3,32.7,22.0,36.7,28.3,18.5,87,84,69,30.22,29.68,17,3,18,0.82
2013-2-27,53.0,43.3,37.4,42.5,35.4,33.8,88,75,52,29.70,29.59,14,3,20,0.03
2013-2-28,42.9,39.9,34.1,35.4,30.0,27.3,79,68,56,29.75,29.65,21,4,21,0.00
2013-3-1,40.7,37.6,33.4,30.7,27.8,24.0,73,68,55,29.93,29.75,15,3,15,0.00
2013-3-2,37.2,31.9,29.2,24.0,21.6,18.5,76,66,56,29.93,29.85,16,3,16,0.00
2013-3-3,37.4,32.0,28.8,22.8,19.6,17.5,72,60,47,29.97,29.85,15,5,24,0.00
2013-3-4,42.7,32.2,24.3,20.1,17.3,14.1,76,55,35,30.07,29.97,21,4,25,0.00
2013-3-5,48.2,37.6,24.5,30.5,21.4,15.2,86,55,32,30.09,29.82,13,3,17,0.00
2013-3-6,41.6,36.5,33.0,34.1,31.0,29.3,88,81,67,30.06,29.71,19,3,19,0.66
2013-3-7,46.9,40.7,37.1,30.3,29.1,27.1,73,63,50,30.21,30.06,15,4,15,0.01
2013-3-8,47.1,39.6,35.3,31.3,28.2,26.3,73,64,52,30.35,30.20,19,4,21,0.00
2013-3-9,59.3,41.0,25.1,30.6,25.7,21.3,87,59,23,30.40,30.26,7,1,7,0.00
2013-3-10,64.3,45.5,23.9,34.7,27.2,20.6,87,55,27,30.31,30.17,13,1,13,0.00
2013-3-11,58.9,49.5,38.9,49.2,37.0,24.3,79,63,36,30.19,29.84,11,2,14,0.00
2013-3-12,57.2,50.0,40.6,51.3,41.6,28.1,86,73,56,29.99,29.75,20,3,22,0.45
2013-3-13,46.7,38.0,28.2,32.9,25.0,19.6,85,60,37,30.09,29.92,27,4,27,0.01
2013-3-14,43.2,36.1,30.3,20.9,18.0,15.5,61,48,36,30.16,30.07,21,7,27,0.00
2013-3-15,57.5,44.1,29.3,36.2,27.4,19.8,72,53,37,30.13,29.79,18,3,18,0.00
2013-3-16,49.1,42.6,36.6,39.4,35.9,32.7,86,77,64,29.94,29.65,13,2,13,0.00
2013-3-17,39.8,36.7,32.8,32.8,28.3,24.4,87,72,56,30.26,29.93,11,2,12,0.00
2013-3-18,36.5,33.0,30.8,30.1,28.4,23.9,87,83,60,30.31,29.90,14,2,14,0.04
2013-3-19,56.4,43.4,32.8,36.7,24.2,10.5,88,53,19,29.95,29.75,25,6,28,0.30
2013-3-20,51.4,41.0,33.6,29.8,17.7,13.1,81,41,23,29.99,29.76,24,7,27,0.00
2013-3-21,34.6,30.3,25.6,26.9,15.1,8.8,73,53,37,29.93,29.81,18,4,20,0.00
2013-3-22,45.8,34.0,25.8,21.2,18.0,13.3,70,53,35,30.03,29.90,17,3,17,0.00
2013-3-23,53.4,37.5,19.1,27.8,21.8,15.6,86,57,31,30.05,29.93,17,2,17,0.00
2013-3-24,41.0,33.2,25.6,30.3,25.0,20.7,86,73,51,30.02,29.65,9,1,9,0.00
2013-3-25,38.9,34.4,32.4,34.2,30.8,29.0,88,87,82,29.73,29.54,5,0,5,0.55
2013-3-26,49.8,39.7,32.0,34.7,30.1,27.2,88,70,46,30.03,29.73,15,3,18,0.07
2013-3-27,47.4,40.9,35.8,31.9,28.8,25.8,73,63,44,30.15,30.02,19,5,19,0.00
2013-3-28,45.7,40.7,34.8,33.7,30.3,27.8,80,66,55,30.26,30.10,15,3,17,0.00
2013-3-29,55.2,44.3,30.5,35.1,29.6,25.6,86,59,33,30.27,30.15,15,2,15,0.00
2013-3-30,60.8,42.1,24.8,33.7,23.9,17.5,87,56,20,30.26,30.10,11,1,12,0.00
2013-3-31,46.9,40.1,31.3,43.2,35.2,22.1,87,83,63,30.11,29.76,9,0,9,0.19
2013-4-1,58.6,43.7,35.1,46.4,33.7,17.3,88,70,42,30.01,29.76,17,3,24,0.04
2013-4-2,46.9,38.7,28.4,20.0,17.0,12.7,69,42,27,30.19,30.01,17,4,19,0.00
2013-4-3,49.1,36.9,21.5,24.1,17.0,11.4,83,48,24,30.43,30.19,19,4,21,0.00
2013-4-4,49.9,36.1,17.9,27.3,16.5,12.0,84,49,22,30.43,30.06,11,1,12,0.00
2013-4-5,65.0,49.8,33.1,35.0,28.0,16.4,86,49,23,30.09,29.84,22,3,22,0.00
2013-4-6,56.7,45.0,28.7,26.8,21.9,16.7,76,42,22,30.33,30.09,13,2,13,0.00
2013-4-7,73.9,56.3,39.5,45.2,37.5,25.0,70,50,33,30.22,29.93,12,2,12,0.00
2013-4-8,80.2,64.6,45.4,50.8,45.6,40.5,83,54,29,30.07,29.89,12,1,12,0.00
2013-4-9,87.9,69.0,51.7,56.6,51.3,45.1,80,56,30,30.08,29.89,12,2,13,0.00
2013-4-10,91.4,73.3,53.9,60.3,53.8,48.4,82,55,29,29.95,29.74,23,3,25,0.00
2013-4-11,85.4,70.7,53.2,60.2,55.5,48.3,84,61,39,29.87,29.67,14,3,14,0.00
2013-4-12,71.2,60.0,52.8,61.6,52.1,38.0,86,77,40,29.79,29.56,16,4,20,0.50
2013-4-13,69.2,57.1,49.7,39.8,34.6,25.8,66,44,23,29.97,29.79,16,4,21,0.00
2013-4-14,68.9,52.7,34.3,42.0,35.8,30.3,86,56,28,30.16,29.97,10,1,11,0.00
2013-4-15,66.0,59.5,54.1,52.4,47.7,39.7,81,65,52,30.25,30.11,16,2,16,0.00
2013-4-16,77.9,65.3,55.6,62.1,56.1,50.1,85,73,56,30.26,30.06,10,2,12,0.23
2013-4-17,71.7,64.3,57.6,62.2,57.7,53.4,87,80,69,30.20,30.10,9,2,11,0.10
2013-4-18,75.9,66.3,60.3,63.8,58.3,55.4,85,76,63,30.20,29.92,11,2,12,0.00
2013-4-19,76.8,64.9,51.7,65.1,56.6,37.0,85,75,59,29.92,29.55,20,2,20,0.57
2013-4-20,58.7,50.0,41.6,38.3,29.7,25.0,64,46,31,30.37,29.79,20,6,23,0.00
2013-4-21,54.2,42.3,28.6,31.4,27.5,23.0,86,59,33,30.60,30.37,12,2,12,0.00
2013-4-22,57.7,45.1,30.1,37.5,32.5,26.4,86,63,41,30.58,30.39,14,3,18,0.00
2013-4-23,58.4,46.4,31.4,46.1,38.5,27.7,86,74,59,30.41,30.10,11,2,11,0.00
2013-4-24,77.8,56.9,36.3,59.5,47.3,32.5,87,73,43,30.10,29.72,19,2,22,0.08
2013-4-25,67.0,53.4,43.1,41.6,33.1,24.4,69,48,27,30.31,30.05,20,3,22,0.00
2013-4-26,68.4,50.5,35.1,39.9,35.5,29.4,86,60,26,30.47,30.31,13,2,13,0.00
2013-4-27,71.7,53.9,32.3,47.0,39.1,28.6,86,61,35,30.42,30.25,13,2,15,0.00
2013-4-28,59.1,50.4,39.8,49.5,44.3,35.7,86,80,56,30.26,30.12,6,1,9,0.18
2013-4-29,60.3,55.8,51.8,55.8,51.5,47.7,86,85,84,30.12,30.02,11,1,13,0.00
2013-4-30,59.2,56.5,54.1,55.0,52.3,49.7,86,86,84,30.29,30.10,11,2,11,0.04
2013-5-1,70.7,60.1,50.6,50.4,43.0,31.6,87,58,27,30.40,30.29,11,2,14,0.00
2013-5-2,70.1,56.6,38.2,50.3,44.0,34.4,86,65,40,30.43,30.30,10,2,16,0.00
2013-5-3,68.3,54.7,38.8,51.4,43.5,35.0,87,68,42,30.38,30.26,15,2,15,0.00
2013-5-4,68.3,54.9,38.2,49.7,42.4,34.3,86,65,41,30.33,30.16,15,2,15,0.00
2013-5-5,64.8,52.7,39.2,45.8,41.4,35.4,86,67,44,30.24,30.12,15,3,15,0.00
2013-5-6,59.1,52.5,42.1,54.6,47.8,37.9,86,84,73,30.18,30.05,11,2,11,0.04
2013-5-7,61.7,59.5,57.9,57.5,55.2,53.4,86,86,85,30.06,29.93,14,3,14,1.57
2013-5-8,69.7,57.4,50.1,58.0,52.1,46.1,87,83,60,30.00,29.92,8,0,10,0.21
2013-5-9,76.8,60.5,49.7,61.1,52.3,46.0,87,76,50,30.01,29.91,13,1,14,0.01
2013-5-10,83.9,64.0,48.8,64.2,55.6,44.8,87,76,41,30.01,29.85,13,1,14,0.54
2013-5-11,71.5,64.4,60.2,65.9,57.9,52.0,87,80,61,29.86,29.72,19,1,19,0.51
2013-5-12,61.4,55.7,44.0,52.6,37.4,27.0,85,52,32,30.03,29.77,14,3,18,0.00
2013-5-13,58.4,47.2,35.0,37.5,30.6,23.5,86,57,28,30.19,30.02,18,2,18,0.00
2013-5-14,64.9,48.5,29.1,44.6,34.4,25.7,87,62,32,30.24,30.02,8,1,10,0.00
2013-5-15,90.3,67.6,45.6,68.2,53.3,41.4,86,63,32,30.02,29.67,11,1,12,0.00
2013-5-16,78.3,71.9,64.2,66.1,59.2,54.5,84,65,49,29.93,29.74,11,2,17,0.05
2013-5-17,80.9,68.5,52.5,63.2,57.3,48.0,86,69,47,30.10,29.93,7,1,9,0.00
2013-5-18,67.7,63.1,59.0,60.6,56.3,51.9,85,79,59,30.20,30.09,9,1,9,0.00
2013-5-19,70.3,62.9,58.3,65.0,58.3,53.8,86,85,81,30.19,30.06,5,0,6,0.01
2013-5-20,82.7,71.2,63.5,70.6,64.3,58.9,86,79,61,30.09,29.95,8,1,13,0.01
2013-5-21,91.5,74.2,61.1,72.9,65.3,56.6,86,75,45,29.97,29.82,6,0,7,0.00
2013-5-22,89.0,72.7,63.1,72.7,63.8,58.5,85,75,46,29.92,29.78,14,0,16,0.67
2013-5-23,78.1,67.5,62.8,70.7,62.4,58.2,86,84,71,29.87,29.72,6,0,9,0.40
2013-5-24,63.6,53.9,45.1,59.0,44.3,31.6,87,71,53,30.22,29.75,25,3,25,0.01
2013-5-25,65.8,52.7,39.1,42.5,37.1,31.7,85,58,36,30.25,30.13,14,2,18,0.00
2013-5-26,71.8,57.8,44.0,44.6,38.6,34.6,85,52,26,30.24,30.14,13,2,15,0.00
2013-5-27,68.1,54.4,37.2,54.5,44.8,33.4,87,72,44,30.30,30.18,5,0,5,0.00
2013-5-28,78.8,63.5,51.0,69.1,57.4,46.7,87,81,67,30.20,30.03,6,1,8,0.07
2013-5-29,89.6,73.2,59.4,71.7,62.9,54.8,86,72,45,30.10,30.04,6,1,12,0.00
2013-5-30,88.8,75.2,60.8,73.3,64.8,56.3,86,72,47,30.17,30.07,9,0,9,0.00
2013-5-31,90.2,75.0,59.3,69.0,63.3,54.8,86,69,42,30.13,29.98,6,0,7,0.00
2013-6-1,89.9,76.5,63.0,72.4,65.9,58.4,86,71,49,30.02,29.86,5,0,9,0.00
2013-6-2,83.3,73.6,65.9,72.5,66.5,61.3,85,79,63,29.87,29.81,3,0,6,0.10
2013-6-3,78.9,70.5,59.1,68.4,62.0,53.1,86,75,61,29.98,29.83,9,1,9,0.21
2013-6-4,76.8,62.0,47.1,59.2,50.0,43.1,87,68,39,30.13,29.98,9,1,9,0.00
2013-6-5,77.8,63.5,47.3,62.9,54.2,43.3,87,73,50,30.17,30.01,10,1,10,0.00
2013-6-6,66.4,63.7,61.1,60.9,57.8,52.0,86,81,67,30.03,29.84,10,0,10,0.55
2013-6-7,68.5,65.7,63.5,63.9,61.1,58.9,86,85,84,29.84,29.64,7,1,7,0.26
2013-6-8,80.2,68.4,60.1,65.8,60.7,55.7,87,77,56,30.10,29.75,10,1,12,0.00
2013-6-9,78.9,68.7,58.3,69.1,62.2,53.7,86,80,66,30.18,30.07,9,1,9,0.00
2013-6-10,79.3,70.3,66.1,73.9,65.3,61.5,86,84,80,30.08,29.77,7,0,7,0.86
2013-6-11,79.0,69.8,61.8,68.7,63.3,57.2,87,80,66,29.85,29.78,12,1,12,0.00
2013-6-12,88.2,75.4,63.8,73.0,66.4,59.2,86,75,53,29.86,29.77,10,1,11,0.01
2013-6-13,82.8,70.3,66.7,72.2,63.5,55.0,87,79,64,29.77,29.49,21,2,21,0.41
2013-6-14,79.6,68.8,61.1,61.6,56.2,53.0,84,65,41,29.99,29.65,18,2,18,0.00
2013-6-15,82.6,68.3,54.1,63.0,56.1,49.7,86,68,36,30.09,29.98,6,1,11,0.00
2013-6-16,80.5,69.6,58.3,69.9,62.0,54.1,86,78,63,30.03,29.88,5,0,10,0.00
2013-6-17,87.2,74.8,62.4,72.5,65.9,57.8,86,75,51,29.95,29.86,6,0,6,0.00
2013-6-18,76.1,69.6,64.9,70.3,64.6,59.9,86,84,78,29.90,29.78,3,0,4,0.13
2013-6-19,78.2,68.1,58.4,65.0,60.2,53.9,87,77,54,30.14,29.89,6,1,7,0.01
2013-6-20,78.5,67.2,55.4,70.0,60.3,51.0,86,79,62,30.23,30.13,11,1,11,0.00
2013-6-21,81.9,70.0,55.5,67.7,60.6,51.1,86,73,56,30.28,30.19,10,1,10,0.00
2013-6-22,87.6,72.7,56.3,71.1,62.8,51.8,86,73,50,30.22,30.09,5,0,8,0.00
2013-6-23,88.4,74.0,60.9,75.1,65.9,56.2,86,77,57,30.17,30.04,5,0,7,0.00
2013-6-24,92.7,76.0,66.8,74.0,67.8,62.1,86,77,43,30.12,30.01,8,0,8,0.00
2013-6-25,93.9,78.9,65.3,75.3,67.8,60.4,86,71,46,30.02,29.86,11,1,16,0.02
2013-6-26,90.2,74.1,63.5,75.9,66.7,58.9,86,79,52,29.92,29.81,8,1,9,0.05
2013-6-27,84.6,73.2,65.5,75.0,67.2,60.5,86,82,70,29.82,29.61,8,1,10,1.29
2013-6-28,87.5,73.7,66.1,74.5,66.5,61.3,86,79,53,29.61,29.46,9,1,16,0.04
2013-6-29,87.4,73.6,63.0,72.2,64.5,58.4,86,75,47,29.70,29.51,7,0,9,0.07
2013-6-30,86.1,71.9,63.1,75.1,65.5,58.2,87,81,63,29.82,29.68,8,1,13,0.29
2013-7-1,81.6,73.5,67.4,73.5,67.7,62.4,86,82,71,29.94,29.82,6,0,9,0.04
2013-7-2,83.7,75.0,69.0,75.5,69.1,64.0,86,82,70,30.12,29.93,10,0,10,0.01
2013-7-3,83.3,75.4,69.6,75.9,69.7,64.5,86,83,74,30.20,30.11,7,0,7,0.01
2013-7-4,89.5,78.0,67.5,77.4,70.2,62.5,86,78,62,30.21,30.12,8,0,8,0.00
2013-7-5,90.3,78.7,67.1,76.7,69.8,62.1,86,75,57,30.19,30.07,7,1,9,0.00
2013-7-6,92.8,79.5,66.9,77.3,69.9,61.9,86,74,51,30.17,30.02,6,0,9,0.00
2013-7-7,88.9,74.1,67.4,76.8,67.2,62.4,86,80,59,30.08,29.97,18,0,18,0.46
2013-7-8,87.2,75.1,64.5,74.9,66.9,59.6,87,77,56,30.10,30.02,8,1,8,0.00
2013-7-9,85.9,74.7,67.4,76.5,69.0,62.4,86,83,67,30.10,29.97,5,0,5,0.09
2013-7-10,85.2,76.0,70.4,77.9,70.5,65.3,86,83,68,29.99,29.83,4,0,9,0.17
2013-7-11,82.9,75.4,68.5,72.5,68.1,64.1,86,78,62,29.92,29.84,8,0,8,0.00
2013-7-12,74.7,69.0,64.4,68.7,63.9,59.5,87,84,72,30.07,29.90,6,0,9,0.43
2013-7-13,81.8,73.2,65.6,73.5,67.1,60.6,87,82,69,30.24,30.05,6,0,7,0.00
2013-7-14,90.0,78.0,68.2,76.9,70.1,63.2,86,77,57,30.32,30.24,7,0,7,0.01
2013-7-15,92.6,79.2,65.3,77.6,70.0,60.3,86,75,51,30.30,30.18,8,0,8,0.00
2013-7-16,93.3,79.5,70.5,78.6,71.0,65.4,86,76,50,30.26,30.16,8,1,8,0.00
2013-7-17,95.0,82.4,71.8,78.3,72.6,66.7,86,74,50,30.22,30.08,6,1,8,0.00
2013-7-18,98.2,83.7,71.8,79.5,73.7,66.7,86,74,47,30.11,29.98,3,0,5,0.00
2013-7-19,98.7,82.0,71.7,79.8,72.3,66.9,86,74,47,30.00,29.84,14,1,14,0.00
2013-7-20,93.9,78.8,69.5,78.9,70.9,64.9,86,78,50,29.88,29.78,11,1,15,0.15
2013-7-21,88.8,75.4,67.8,74.9,68.5,62.8,86,80,59,29.94,29.87,8,0,8,0.04
2013-7-22,85.3,73.6,67.4,75.5,67.6,62.4,86,82,66,29.94,29.75,7,0,8,1.71
2013-7-23,87.2,76.1,70.0,73.8,68.5,64.7,87,78,57,29.76,29.65,12,1,12,0.04
2013-7-24,82.0,71.6,59.3,68.6,62.6,55.0,87,75,52,29.93,29.68,7,1,9,0.01
2013-7-25,78.3,65.1,54.1,62.8,55.7,49.7,87,73,49,30.06,29.93,9,1,9,0.00
2013-7-26,82.3,67.3,51.8,65.8,57.4,47.4,87,73,46,30.11,30.01,7,0,7,0.00
2013-7-27,80.8,68.7,57.6,72.8,63.4,53.1,87,83,71,30.03,29.89,5,0,9,0.03
2013-7-28,84.8,72.0,63.5,72.4,64.9,59.2,87,79,52,29.99,29.86,4,0,5,0.00
2013-7-29,82.1,68.0,52.7,62.3,56.9,48.6,87,70,42,30.17,29.99,8,1,8,0.00
2013-7-30,83.0,68.1,53.3,68.2,58.7,49.1,87,74,47,30.23,30.13,7,0,7,0.00
2013-7-31,78.8,67.4,58.3,69.5,61.6,53.8,87,82,70,30.15,29.99,8,0,8,0.00
2013-8-1,84.7,73.3,65.6,73.1,66.6,60.9,87,80,60,29.99,29.79,7,0,7,0.20
2013-8-2,85.4,72.1,60.5,69.0,61.8,56.0,87,72,43,29.96,29.87,9,1,10,0.01
2013-8-3,73.9,66.7,61.7,69.3,62.3,57.5,87,86,84,29.96,29.91,3,0,3,0.18
2013-8-4,79.6,67.4,56.0,64.8,58.0,51.9,88,74,45,30.05,29.94,8,1,11,0.01
2013-8-5,81.6,65.8,51.4,65.2,55.8,47.3,88,73,39,30.12,30.00,6,0,7,0.00
2013-8-6,77.9,67.4,60.1,69.3,62.1,56.0,87,83,70,30.05,29.99,5,0,9,0.64
2013-8-7,82.7,72.8,67.6,74.2,67.6,63.0,87,84,74,30.05,29.95,8,0,9,0.34
2013-8-8,82.9,73.1,65.5,76.7,68.1,60.9,87,84,75,30.01,29.93,4,0,5,0.15
2013-8-9,84.2,75.9,70.8,77.7,70.6,65.7,86,84,74,29.96,29.86,9,0,9,0.12
2013-8-10,84.6,72.8,65.8,72.0,65.4,60.9,87,78,54,30.07,29.95,5,0,5,0.01
2013-8-11,85.4,73.2,63.4,73.9,65.9,58.5,87,79,60,30.10,29.98,8,0,8,0.00
2013-8-12,88.5,75.5,63.3,73.4,66.5,58.5,87,75,49,30.02,29.89,8,0,9,0.00
2013-8-13,85.2,72.9,66.7,74.4,66.6,59.9,87,81,60,29.89,29.73,9,1,9,0.44
2013-8-14,73.2,63.4,50.3,60.3,53.1,46.6,88,70,52,30.12,29.85,11,2,13,0.00
2013-8-15,77.5,61.1,46.2,58.5,51.3,42.2,88,73,42,30.20,30.10,6,0,6,0.00
2013-8-16,78.8,63.4,46.4,62.5,53.6,42.4,88,73,46,30.20,30.12,8,1,8,0.00
2013-8-17,78.2,65.4,49.1,65.4,56.7,45.1,88,75,55,30.27,30.20,8,1,10,0.00
2013-8-18,66.6,63.0,60.1,62.9,58.9,55.7,88,87,85,30.26,30.17,5,0,5,0.22
2013-8-19,77.4,65.8,58.0,71.2,61.2,53.7,88,85,78,30.18,30.05,7,0,7,0.10
2013-8-20,86.4,71.7,63.2,71.2,63.3,58.6,88,76,47,30.17,30.09,6,0,6,0.00
2013-8-21,87.5,72.8,58.9,76.6,66.3,54.4,88,81,62,30.20,30.05,6,0,7,0.00
2013-8-22,87.1,75.9,67.0,73.5,67.2,62.3,88,75,57,30.08,29.92,7,1,8,0.00
2013-8-23,72.2,67.3,60.2,67.6,62.7,55.7,88,85,80,30.13,29.94,5,0,6,0.45
2013-8-24,80.9,66.8,57.1,66.2,57.9,52.7,89,75,40,30.34,30.13,7,0,7,0.01
2013-8-25,82.4,65.8,51.0,68.5,57.5,47.0,88,77,47,30.41,30.24,6,0,7,0.00
2013-8-26,88.0,71.3,56.4,71.1,62.1,51.9,88,74,49,30.27,29.99,9,1,9,0.00
2013-8-27,86.4,76.9,69.4,75.8,69.7,64.3,87,79,66,29.99,29.87,9,1,10,0.00
2013-8-28,74.7,71.9,69.4,69.9,67.0,64.4,87,84,84,29.91,29.80,4,0,6,0.37
2013-8-29,84.6,75.0,66.2,73.9,68.1,61.5,88,80,58,30.01,29.84,8,1,8,0.01
2013-8-30,89.0,74.5,62.6,75.1,66.5,58.0,88,77,51,30.01,29.84,8,0,8,0.00
2013-8-31,89.3,76.6,66.4,76.9,69.3,61.3,88,79,58,29.86,29.76,7,0,7,0.01
2013-9-1,89.5,75.7,64.4,76.9,68.1,59.7,88,78,56,29.83,29.74,7,0,10,0.00
2013-9-2,91.3,77.7,67.0,74.5,68.9,62.0,88,76,51,29.79,29.70,10,1,10,0.00
2013-9-3,82.9,72.5,60.5,67.6,61.6,55.8,88,71,43,29.99,29.73,11,1,12,0.00
2013-9-4,83.9,66.5,51.5,62.1,55.1,47.5,89,70,34,30.10,29.99,7,1,8,0.00
2013-9-5,81.5,67.4,53.5,64.7,56.5,50.0,89,70,43,30.14,30.03,13,1,13,0.00
2013-9-6,75.0,59.1,44.0,55.7,48.6,40.5,89,71,39,30.27,30.13,7,1,8,0.00
2013-9-7,83.9,62.9,45.0,60.2,51.0,41.3,89,70,26,30.16,29.94,7,1,10,0.00
2013-9-8,87.9,72.0,57.5,69.5,62.6,54.0,88,74,50,30.05,29.88,12,1,13,0.00
2013-9-9,77.1,66.4,56.9,65.2,57.9,51.1,88,75,55,30.20,30.05,7,0,8,0.00
2013-9-10,95.4,75.8,60.4,75.7,66.6,55.9,88,75,49,30.16,30.05,7,0,7,0.00
2013-9-11,95.8,80.2,68.1,77.5,70.3,63.3,88,74,48,30.13,29.97,7,0,8,0.00
2013-9-12,94.0,77.4,68.1,74.8,67.5,63.4,88,74,42,29.98,29.72,11,1,15,0.00
2013-9-13,77.1,66.8,57.5,64.4,56.0,46.9,88,70,39,29.97,29.72,14,2,17,0.01
2013-9-14,69.1,56.5,45.1,48.1,45.1,42.0,89,68,43,30.18,29.96,13,2,14,0.00
2013-9-15,78.4,59.0,41.1,59.1,49.6,37.5,90,74,44,30.23,30.06,11,0,11,0.00
2013-9-16,71.9,61.2,54.3,59.8,55.1,50.5,89,81,57,30.25,30.02,10,1,10,0.10
2013-9-17,68.7,55.5,41.4,50.5,44.2,38.1,90,69,37,30.44,30.25,7,1,10,0.00
2013-9-18,73.8,50.7,34.0,52.4,42.1,30.8,90,75,40,30.34,30.17,8,0,9,0.00
2013-9-19,77.0,59.1,44.3,61.4,51.4,40.7,89,77,54,30.19,30.06,6,0,6,0.00
2013-9-20,83.0,64.6,49.8,65.9,57.0,45.8,89,78,52,30.08,29.92,8,0,11,0.00
2013-9-21,72.2,63.7,58.6,65.4,59.3,54.4,88,86,78,29.92,29.66,11,0,12,0.67
2013-9-22,72.7,59.5,49.4,58.9,51.6,45.4,89,76,53,29.98,29.74,11,1,11,0.01
2013-9-23,66.1,55.4,43.1,49.3,45.9,39.5,89,72,50,30.11,29.97,9,1,13,0.00
2013-9-24,74.5,52.8,36.2,53.9,44.3,32.7,89,76,40,30.15,29.96,7,0,7,0.00
2013-9-25,75.2,54.6,38.9,55.2,45.0,35.4,90,74,38,30.02,29.89,5,0,6,0.01
2013-9-26,75.5,54.9,41.9,55.0,46.7,38.3,89,76,43,30.09,29.95,7,0,7,0.00
2013-9-27,73.9,55.9,42.8,59.3,49.4,39.2,89,80,58,30.23,30.09,7,0,8,0.00
2013-9-28,66.4,55.9,46.1,57.5,49.9,42.2,89,81,63,30.32,30.23,5,0,6,0.00
2013-9-29,72.7,54.9,41.4,57.3,47.2,37.8,89,77,46,30.23,30.06,8,0,8,0.00
2013-9-30,78.8,58.1,42.0,57.8,49.3,38.4,89,75,44,30.10,29.97,7,0,8,0.00
2013-10-1,82.8,64.3,52.2,63.0,55.6,48.3,89,76,45,30.08,29.97,9,1,9,0.00
2013-10-2,86.9,68.7,54.0,64.6,57.9,50.0,89,71,42,30.08,30.00,10,1,12,0.00
2013-10-3,84.9,67.3,54.1,66.3,59.2,50.0,89,77,49,30.13,30.02,6,0,7,0.00
2013-10-4,87.2,70.0,57.9,68.8,61.2,53.4,89,76,48,30.10,30.00,6,0,8,0.00
2013-10-5,89.2,72.0,60.3,68.7,62.1,55.8,89,73,46,30.09,29.97,6,0,7,0.00
2013-10-6,91.3,73.3,57.1,68.1,61.2,53.0,88,69,38,30.00,29.85,10,1,12,0.00
2013-10-7,73.2,63.1,52.0,66.2,56.7,45.0,89,80,60,30.08,29.70,14,1,14,1.26
2013-10-8,68.4,54.8,41.7,50.9,45.6,38.1,89,73,46,30.30,30.08,11,1,11,0.00
2013-10-9,61.4,50.5,40.5,50.9,43.9,36.9,90,79,57,30.37,30.27,8,1,8,0.01
2013-10-10,54.9,52.8,51.0,51.1,48.9,47.3,89,86,86,30.27,30.05,4,0,6,1.37
2013-10-11,60.0,56.7,53.3,55.8,52.6,49.2,87,86,85,30.05,30.00,5,0,5,1.50
2013-10-12,63.9,60.7,57.6,60.6,56.8,53.2,89,87,85,30.19,30.02,8,1,11,0.22
2013-10-13,58.7,57.5,56.6,54.8,53.3,52.3,87,86,85,30.33,30.18,8,1,8,0.23
2013-10-14,65.8,58.5,54.4,59.1,54.0,50.6,90,85,75,30.35,30.23,5,0,5,0.00
2013-10-15,69.5,58.2,50.4,58.8,51.5,46.8,90,80,54,30.24,30.08,7,0,8,0.01
2013-10-16,70.7,57.6,45.1,61.7,52.6,41.2,90,84,68,30.08,29.90,6,0,6,0.00
2013-10-17,72.5,62.3,55.9,64.8,57.3,46.6,89,84,69,29.90,29.68,16,1,24,0.10
2013-10-18,66.4,55.5,40.7,47.5,43.7,37.7,90,66,42,30.02,29.86,13,2,18,0.01
2013-10-19,62.2,48.3,35.2,54.0,42.7,32.0,90,81,64,30.00,29.77,12,1,15,0.02
2013-10-20,62.7,48.7,35.8,41.2,37.7,33.2,90,69,38,30.10,29.93,13,2,14,0.01
2013-10-21,68.5,48.6,30.7,46.7,38.8,27.8,90,72,39,30.15,29.92,11,1,11,0.00
2013-10-22,59.5,48.4,37.6,49.5,40.4,31.6,90,75,39,29.93,29.84,13,1,13,0.00
2013-10-23,49.4,40.8,30.6,41.3,34.9,27.7,90,80,64,29.93,29.72,13,1,13,0.00
2013-10-24,47.5,40.5,33.5,37.5,33.4,29.8,90,77,51,30.16,29.93,13,2,18,0.00
2013-10-25,51.2,38.4,29.2,36.2,30.5,26.5,90,75,49,30.34,30.15,14,2,15,0.00
2013-10-26,56.3,41.2,25.1,35.8,29.0,22.6,91,66,37,30.33,29.94,15,1,18,0.01
2013-10-27,59.1,47.8,32.8,39.1,34.2,29.7,89,61,37,30.15,29.98,13,2,15,0.00
2013-10-28,61.4,42.0,26.5,41.8,33.7,24.0,90,75,44,30.30,30.15,7,1,9,0.00
2013-10-29,61.0,44.6,29.9,43.2,36.9,27.1,90,76,48,30.42,30.30,6,0,7,0.00
2013-10-30,66.6,53.2,43.0,55.0,47.4,39.6,90,81,62,30.32,30.13,6,0,6,0.02
2013-10-31,68.7,59.7,52.6,61.2,54.9,49.2,90,84,72,30.16,29.69,5,0,9,0.05
2013-11-1,73.2,62.1,47.0,62.2,51.6,43.7,89,72,38,29.69,29.50,18,2,21,0.20
2013-11-2,62.4,51.3,40.7,49.0,42.2,37.4,90,73,45,29.90,29.66,18,2,23,0.00
2013-11-3,56.5,46.7,30.0,40.4,32.2,21.4,86,60,26,30.47,29.90,11,2,13,0.00
2013-11-4,43.1,34.8,23.3,28.2,24.9,20.7,90,69,46,30.66,30.47,7,1,8,0.00
2013-11-5,51.7,40.4,27.5,41.1,33.0,24.7,90,76,51,30.64,30.44,6,0,6,0.00
2013-11-6,71.3,55.6,43.3,53.2,47.4,40.0,90,76,49,30.45,30.00,9,1,11,0.00
2013-11-7,61.1,53.0,40.6,53.4,43.3,24.2,89,70,48,30.09,29.85,21,3,21,0.01
2013-11-8,49.5,40.4,27.0,30.3,26.7,23.4,87,60,39,30.33,30.08,20,3,20,0.00
2013-11-9,56.7,39.0,24.4,34.2,28.4,21.6,90,69,38,30.35,30.03,10,1,12,0.00
2013-11-10,57.8,44.7,30.6,38.8,30.4,-99.9,90,60,36,30.26,30.00,21,4,22,0.00
2013-11-11,58.9,45.0,30.7,36.3,31.3,26.7,88,61,33,30.30,30.01,7,1,9,0.00
2013-11-12,53.0,38.1,27.8,40.5,24.8,15.9,83,59,40,30.44,29.99,20,3,21,0.00
2013-11-13,42.8,34.6,28.5,22.8,20.2,16.5,68,56,35,30.52,30.39,14,3,17,0.00
2013-11-14,59.4,36.9,23.6,22.6,17.7,8.7,79,52,15,30.39,30.23,12,1,13,0.00
2013-11-15,61.8,41.5,20.9,35.7,23.8,17.0,90,57,18,30.29,30.17,7,0,7,0.00
2013-11-16,60.7,48.4,36.5,49.4,43.0,32.5,90,82,63,30.31,30.20,10,1,11,0.01
2013-11-17,63.5,56.8,50.4,57.4,52.6,47.1,90,86,76,30.21,29.65,8,1,10,0.01
2013-11-18,63.4,57.3,47.3,58.6,34.9,26.5,87,44,26,29.96,29.66,26,6,29,0.01
2013-11-19,47.3,40.3,27.8,29.2,26.3,23.0,83,58,44,30.41,29.95,21,3,21,0.00
2013-11-20,44.6,33.3,20.9,28.8,22.3,18.4,90,67,37,30.58,30.40,11,2,13,0.00
2013-11-21,48.1,36.0,23.6,38.6,30.9,21.1,90,82,68,30.59,30.37,7,1,7,0.02
2013-11-22,59.0,49.5,39.6,52.8,43.6,35.9,89,80,68,30.38,30.03,15,1,19,0.00
2013-11-23,52.0,39.3,28.3,44.4,26.3,12.4,82,60,42,30.26,30.07,22,4,29,0.00
2013-11-24,28.7,24.9,20.5,12.9,7.7,3.2,62,48,39,30.55,30.26,23,6,25,0.00
2013-11-25,38.0,27.1,14.0,18.6,11.2,7.8,80,53,29,30.57,30.31,10,1,10,0.00
2013-11-26,36.5,34.0,31.5,31.3,27.6,16.5,90,78,48,30.31,29.67,8,1,9,1.29
2013-11-27,38.4,34.7,27.5,35.1,28.7,15.4,91,79,59,30.09,29.59,23,4,24,0.05
2013-11-28,35.0,29.7,25.5,24.4,18.4,13.0,83,63,50,30.49,30.09,20,3,20,0.01
2013-11-29,39.8,29.8,19.4,27.7,22.2,16.8,90,75,50,30.74,30.47,12,1,13,0.01
2013-11-30,35.4,24.9,14.0,25.1,19.4,11.6,91,80,62,30.75,30.38,8,1,8,0.00
2013-12-1,39.1,29.0,16.1,29.9,23.8,13.7,91,81,67,30.38,30.04,4,0,4,0.00
2013-12-2,44.7,38.0,33.9,34.2,31.9,28.9,88,79,64,30.04,29.88,5,0,6,0.00
2013-12-3,53.3,38.5,30.1,40.1,32.9,27.5,90,81,59,30.00,29.89,6,0,6,0.00
2013-12-4,55.1,40.8,28.2,44.7,35.9,25.3,90,83,65,30.10,29.99,7,1,7,0.00
2013-12-5,70.6,51.0,35.6,57.7,46.0,32.4,90,84,63,30.06,29.90,10,0,11,0.06
2013-12-6,55.1,43.7,36.2,51.0,40.5,33.1,90,88,86,30.20,29.86,11,1,11,2.08
2013-12-7,38.0,34.6,26.4,33.4,28.3,21.0,91,78,65,30.56,30.17,15,2,15,0.00
2013-12-8,27.6,25.3,23.9,25.1,21.8,19.1,91,86,75,30.59,30.33,5,1,5,0.00
2013-12-9,35.5,32.0,27.6,32.9,29.2,24.8,91,89,88,30.34,30.05,5,0,5,0.18
2013-12-10,37.1,32.9,26.7,32.9,26.5,16.8,91,78,55,30.23,30.01,22,3,23,0.11
2013-12-11,37.9,28.4,19.9,23.0,17.3,14.2,89,64,38,30.40,30.22,20,2,20,0.03
2013-12-12,34.8,26.5,22.5,24.0,11.6,5.2,71,53,36,30.45,30.25,17,4,19,0.00
2013-12-13,41.6,29.6,17.9,23.8,15.6,8.3,84,57,37,30.32,30.22,14,2,14,0.04
2013-12-14,33.8,31.6,27.8,31.2,28.4,23.0,90,88,78,30.33,29.77,9,1,10,0.17
2013-12-15,40.6,34.8,32.0,35.3,28.2,22.5,91,77,63,29.95,29.66,24,4,27,0.31
2013-12-16,35.5,32.1,28.4,26.5,24.8,21.5,85,74,63,30.19,29.95,17,2,18,0.01
2013-12-17,38.4,32.0,27.6,32.6,28.4,25.1,91,86,78,30.15,29.93,7,1,8,0.05
2013-12-18,37.4,31.6,21.7,27.1,22.6,18.7,91,70,56,30.23,30.02,17,3,19,0.00
2013-12-19,58.8,34.2,17.6,36.7,25.5,15.2,91,74,40,30.20,30.06,12,1,13,0.00
2013-12-20,57.2,43.0,30.6,37.8,32.4,27.9,90,69,38,30.10,29.96,5,0,6,0.00
2013-12-21,69.0,56.6,40.1,59.6,47.8,35.6,89,73,55,29.99,29.82,8,1,16,0.00
2013-12-22,70.4,62.4,56.3,62.8,57.6,53.0,89,84,74,29.95,29.73,15,2,19,0.12
2013-12-23,57.4,49.0,34.8,54.2,42.6,24.7,90,79,65,30.26,29.88,19,2,19,0.30
2013-12-24,36.2,30.1,20.8,25.8,18.7,7.7,81,63,43,30.51,30.23,21,4,24,0.00
2013-12-25,31.0,24.5,16.7,17.4,13.0,9.1,78,62,48,30.60,30.35,10,1,10,0.00
2013-12-26,43.4,31.6,21.9,27.3,20.1,14.0,79,63,43,30.37,30.24,18,2,21,0.00
2013-12-27,49.1,34.7,21.3,26.5,19.6,13.5,88,59,24,30.42,30.31,16,2,16,0.00
2013-12-28,58.9,38.2,22.4,31.6,25.4,19.4,89,65,28,30.34,30.11,11,1,12,0.00
2013-12-29,47.9,42.5,35.2,44.0,37.9,28.7,90,84,67,30.11,29.59,15,2,18,1.15
2013-12-30,45.8,38.3,28.7,39.9,30.2,21.3,86,72,67,30.18,29.82,24,3,24,0.01
2013-12-31,40.4,30.8,22.7,28.6,21.2,17.4,90,68,47,30.33,30.13,23,3,26,0.00
2014-1-1,48.9,32.7,22.8,27.7,23.5,18.4,87,71,37,30.40,30.13,7,1,8,0.00
2014-1-2,32.1,28.9,23.8,28.3,25.6,21.3,90,87,81,30.12,29.68,7,1,8,0.00